Location: Newark
(43.0000°N, 1.6781°W)
Time: 23:43:42
(UTC+00:00)

deb Explorer IX - Pass Details

Date: 21 April 2021
Orbit: 541 x 1098 km, 38.8° (Epoch: 12 May)

Event Time Altitude Azimuth Distance (km) Brightness Sun altitude
Rises 05:29:31 0° 206° (SSW) 2,679 ? 1.7°
Reaches altitude 10° 05:32:35 10° 181° (S) 1,815 ? 2.2°
Maximum altitude 05:34:48 14° 148° (SSE) 1,597 ? 2.6°
Drops below altitude 10° 05:37:06 10° 116° (ESE) 1,897 ? 3.0°
Sets 05:40:26 0° 91° (E) 2,892 ? 3.6°
